Temp
12 13 14 14 15 15 15 15 15 14 14 15 15 17 18 18 18 18 17 18 18 17 17 17 18 18 17 16 16 16 16 16 15 15 15 14 13 12
12 12 13 14 15 15 15 14 14 14 14 16 16 16 17 17 17 17 17 17 17 16 17 17 17 17 17 17 16 16 16 15 15 15 14 14 13 12
12 12 13 14 14 15 14 14 14 13 13 15 15 16 16 16 16 16 16 16 16 17 17 16 17 17 17 16 16 16 16 15 15 15 14 13 13 13
12 13 13 13 14 14 14 14 13 14 14 14 14 14 15 15 15 15 16 15 15 16 16 16 16 16 16 16 16 16 15 15 14 14 14 14 13 12
12 12 13 14 14 14 14 13 13 13 13 12 13 14 14 14 14 14 14 14 14 14 14 15 15 15 15 15 15 15 14 14 14 13 13 13 13 13
12 13 13 14 14 13 13 13 13 12 12 12 12 13 13 13 13 13 13 13 13 14 14 14 13 14 14 14 14 14 14 14 14 14 13 13 12 12
11 12 13 13 14 14 14 13 12 12 12 12 12 12 12 11 12 12 12 13 13 12 13 13 14 14 14 14 14 14 14 14 14 13 13 13 13 12
11 12 12 13 13 14 14 14 14 12 12 12 12 11 12 12 12 12 12 12 12 12 12 12 12 12 13 14 14 14 13 13 13 13 11 11 12 12
10 10 11 11 11 12 13 13 13 13 12 12 12 12 12 12 13 12 11 11 12 12 12 11 12 11 13 13 13 13 13 12 12 12 10 10 10 11
8 9 9 9 10 10 10 10 10 9 10 11 10 10 10 11 11 11 12 11 11 11 11 10 11 11 11 11 11 11 11 11 11 10 10 9 9 9
7 7 7 8 9 10 10 8 7 6 4 6 6 5 5 6 9 9 8 8 5 7 6 6 7 7 9 10 9 9 8 8 8 8 7 7 7 7
3 3 3 4 5 7 8 7 4 3 3 3 3 3 3 3 4 4 3 4 4 4 3 4 4 5 5 6 6 6 6 6 7 6 6 6 6 5
1 1 1 1 1 2 4 3 2 2 1 1 1 1 0 0 0 1 1 1 2 3 1 2 1 1 2 2 3 5 4 5 4 4 5 5 3 2
-0 -0 -0 -0 0 1 0 0 0 0 0 -0 -1 -1 -2 -2 -2 -1 -1 -0 -0 0 0 -0 -0 -0 -0 -0 -0 1 2 1 1 1 1 2 2 2
-1 -1 -2 -2 -1 -2 -2 -1 -1 -1 -2 -2 -3 -3 -3 -3 -3 -2 -2 -2 -1 -1 -1 -1 -1 -1 -1 -2 -1 -1 -1 -0 -0 -1 -1 -1 -1 -0
-3 -2 -2 -3 -3 -4 -4 -3 -4 -4 -4 -4 -4 -4 -4 -4 -4 -4 -3 -3 -3 -2 -2 -2 -2 -1 -1 -1 -1 -2 -2 -2 -1 -1 -1 -2 -2 -2
-3 -4 -4 -4 -4 -5 -5 -5 -5 -4 -4 -4 -4 -4 -4 -4 -4 -4 -4 -4 -4 -4 -3 -2 -2 -2 -2 -2 -3 -2 -2 -1 -1 -1 -1 -2 -2 -2
-4 -4 -5 -5 -5 -5 -5 -5 -5 -5 -5 -5 -5 -5 -5 -5 -4 -4 -5 -5 -5 -5 -5 -4 -3 -3 -2 -1 -1 -3 -2 -2 -2 -2 -2 -2 -2 -2
-5 -5 -5 -5 -5 -6 -6 -6 -6 -6 -6 -6 -5 -5 -5 -5 -5 -4 -4 -4 -4 -3 -3 -3 -3 -3 -3 -3 -1 -1 -2 -2 -2 -2 -2 -3 -3 -3
-5 -5 -6 -6 -6 -7 -7 -7 -7 -6 -6 -6 -6 -6 -5 -5 -5 -4 -4 -4 -3 -3 -2 -2 -2 -3 -3 -2 -2 -2 -2 -2 -3 -4 -4 -4 -4 -4
-6 -6 -6 -7 -7 -8 -8 -7 -7 -7 -7 -6 -6 -6 -5 -5 -5 -4 -4 -3 -3 -3 -4 -4 -3 -3 -2 -3 -3 -2 -2 -3 -3 -4 -4 -4 -3 -4
-7 -7 -7 -7 -7 -8 -7 -7 -6 -6 -6 -7 -8 -7 -6 -5 -5 -4 -4 -4 -4 -3 -3 -3 -2 -2 -3 -3 -3 -4 -4 -4 -2 -2 -3 -4 -3 -3
-7 -7 -7 -8 -8 -8 -7 -7 -6 -6 -7 -7 -7 -7 -6 -5 -5 -4 -4 -4 -4 -3 -3 -3 -2 -2 -3 -4 -5 -4 -5 -4 -4 -3 -2 -3 -3 -3
Height
719 721 722 725 727 728 731 735 737 738 736 735 739 739 741 742 744 747 747 749 750 753 755 756 758 759 761 763 763 766 769 770 771 773 774 776 777 779
712 713 715 716 720 721 722 726 730 733 732 730 731 734 736 736 738 740 741 742 743 744 746 748 750 750 753 754 755 757 760 763 764 766 768 769 769 772
704 705 707 709 711 714 716 717 722 725 727 726 727 729 729 730 731 733 734 735 735 736 737 739 741 741 744 746 747 749 751 753 757 758 760 762 763 764
697 699 699 702 704 707 709 710 713 715 719 720 720 722 723 723 725 726 727 727 727 728 730 730 731 732 735 736 738 740 742 745 748 750 752 754 756 758
691 692 693 695 697 700 701 704 706 708 710 715 714 716 717 718 719 719 719 718 719 720 722 722 722 724 725 726 728 731 733 735 737 740 742 744 747 750
684 685 686 688 689 693 696 697 700 705 705 707 710 710 712 712 713 713 711 711 710 711 713 714 714 714 716 719 720 722 723 726 726 729 731 733 736 738
679 681 682 682 684 687 688 690 693 698 700 699 702 703 704 704 705 706 704 704 705 706 706 705 705 705 708 710 711 712 713 715 715 717 721 723 725 727
676 676 677 678 680 682 683 685 688 690 692 693 695 696 697 696 697 699 699 702 701 701 700 699 700 698 699 700 701 703 703 704 705 706 710 712 712 713
672 673 674 675 675 677 679 681 683 684 685 687 688 689 690 690 692 692 693 694 694 694 695 692 692 690 691 693 695 695 695 697 699 698 701 705 704 706
671 670 670 671 672 674 676 678 680 680 680 682 683 683 683 684 685 685 686 686 688 688 689 686 686 684 685 686 689 690 689 691 692 692 695 695 696 697
667 668 669 668 667 669 672 675 676 677 678 677 678 677 679 678 678 680 680 682 683 683 682 683 682 681 680 681 683 684 684 685 686 686 687 689 689 689
667 668 668 666 664 665 668 669 672 675 678 677 676 678 679 679 678 678 680 679 679 681 682 683 682 681 680 678 679 680 680 680 680 681 682 683 682 680
670 671 671 670 668 667 667 670 672 674 674 677 678 678 680 680 681 678 680 680 679 680 681 682 681 681 683 682 678 676 676 675 675 676 677 676 676 675
673 674 675 674 672 671 672 672 674 677 674 679 678 678 682 681 681 681 681 681 681 682 682 681 680 681 682 682 682 677 675 674 674 671 669 668 666 666
680 680 679 678 675 676 677 676 675 678 678 679 678 682 683 685 685 685 683 682 680 680 680 679 679 680 681 680 678 676 676 671 670 669 667 666 663 661
686 684 683 683 683 684 682 682 683 685 685 685 686 687 688 689 688 686 683 681 679 678 678 678 678 678 676 675 674 672 671 672 668 666 663 660 658 655
689 689 690 689 688 688 689 689 688 687 686 687 688 689 689 689 688 686 684 682 681 681 679 677 676 675 673 671 668 665 664 663 661 659 657 651 647 645
693 692 693 693 694 694 694 694 693 692 692 692 691 691 690 689 687 686 685 684 682 680 677 674 672 669 666 663 660 659 658 656 653 651 649 643 632 630
698 698 697 697 697 697 697 696 696 696 695 693 692 691 690 689 687 686 684 682 679 676 673 671 667 666 664 661 657 655 653 649 646 643 640 636 628 617
702 703 703 702 701 700 699 698 697 696 695 693 692 691 689 687 685 683 680 678 675 673 670 666 664 663 660 658 654 650 648 643 640 635 630 627 622 614
704 703 703 703 702 701 700 699 697 695 694 692 691 689 688 686 683 681 679 677 674 670 667 664 660 657 654 652 649 644 641 639 636 630 626 622 616 607
705 704 704 704 703 701 700 699 696 695 693 691 689 688 687 685 683 681 678 674 671 668 664 658 654 651 650 649 646 642 638 633 628 627 627 626 620 610
704 706 704 703 703 703 701 700 698 695 693 691 689 687 685 683 681 678 675 672 668 664 660 656 651 649 647 646 644 641 636 632 631 629 624 621 617 612
Wind_Speed
33 33 34 32 33 31 29 27 18 10 10 12 20 24 27 27 30 31 34 33 32 34 33 34 38 36 34 36 35 34 32 32 33 32 32 30 28 27
32 32 32 31 34 34 31 29 29 24 12 17 24 26 29 33 31 32 33 32 31 32 31 31 34 36 36 34 37 36 34 35 35 35 36 33 31 28
31 30 32 32 32 33 30 29 27 26 14 22 24 22 24 28 28 27 25 28 31 34 33 33 35 36 35 35 36 38 36 35 36 38 37 37 36 32
29 31 32 31 32 31 29 29 27 27 24 13 21 25 28 30 31 31 33 32 33 34 35 34 33 35 36 36 33 34 35 35 35 37 40 40 39 37
28 29 30 29 29 28 28 26 25 24 25 20 20 22 28 29 31 29 31 32 32 32 35 35 35 36 40 36 35 37 34 35 36 37 40 41 40 40
29 28 28 26 26 27 28 27 22 23 21 21 20 20 23 23 24 24 25 27 28 29 29 31 32 31 32 35 36 36 35 35 38 38 38 39 41 41
18 24 25 26 26 27 28 27 26 25 21 17 16 15 18 14 17 21 23 24 27 27 29 29 28 28 30 33 38 40 42 46 44 41 39 39 41 42
15 17 20 23 25 27 23 24 26 28 23 17 16 14 19 18 23 24 19 16 7 18 25 29 28 30 33 34 33 30 29 31 30 32 38 39 45 45
14 15 17 18 19 21 23 24 26 29 28 23 20 21 20 23 24 22 23 20 20 22 19 19 28 27 33 32 31 30 28 28 29 25 28 35 34 44
9 10 11 9 10 12 11 10 12 9 18 25 24 13 12 20 22 23 23 22 26 22 20 8 19 27 29 28 27 26 24 25 25 25 27 30 35 37
4 4 6 7 11 14 13 9 11 11 13 11 14 13 8 8 16 17 10 7 3 3 0 2 4 8 13 18 17 17 14 15 16 17 18 21 25 29
17 18 17 8 0 6 12 17 16 12 13 12 9 8 6 7 8 8 3 4 2 1 5 4 2 4 5 4 4 4 4 6 11 15 17 19 19 21
16 18 16 17 19 17 12 12 12 15 12 9 10 10 9 9 7 7 4 2 1 1 3 5 2 3 2 6 12 17 20 19 20 24 25 24 21 18
18 18 16 16 16 16 16 15 12 10 14 11 11 12 8 8 7 6 3 0 2 5 7 6 2 2 3 4 6 10 20 25 22 23 27 22 21 25
15 15 14 15 18 20 16 12 11 10 11 12 13 9 8 6 5 6 5 5 2 1 2 5 7 9 12 9 9 14 15 16 26 18 17 25 28 27
12 14 15 16 15 14 15 16 16 13 13 12 9 6 5 5 6 9 9 10 7 7 5 3 7 10 14 18 19 19 19 10 14 25 25 27 26 26
10 11 12 12 12 12 13 12 13 12 12 9 7 6 5 5 5 7 10 10 5 8 13 10 6 8 15 21 19 19 18 18 21 23 23 25 27 27
7 9 10 10 9 8 8 8 8 8 8 6 4 4 5 7 7 7 7 7 8 10 11 15 15 13 8 11 16 20 17 20 22 22 21 22 28 27
8 6 6 6 6 6 6 6 5 6 8 7 5 5 5 7 6 7 8 8 9 10 12 13 15 11 5 7 11 12 12 23 22 19 19 19 25 35
5 4 4 4 4 4 5 6 5 6 10 10 9 7 7 9 9 9 10 11 11 13 13 12 11 11 5 5 7 20 17 17 21 21 23 24 27 33
3 3 3 3 3 3 4 6 7 7 9 11 12 11 10 10 11 12 11 10 11 13 11 15 17 13 16 14 7 12 18 19 20 26 25 23 25 27
0 1 1 1 1 4 4 7 8 9 11 12 12 13 11 11 12 13 13 12 12 13 15 19 19 17 11 7 9 13 16 23 20 17 17 21 23 9
1 1 1 2 2 3 5 6 9 10 11 11 12 12 12 14 11 12 13 15 13 13 15 15 17 15 10 10 10 12 17 18 17 21 21 15 19 20
Wind_Direction
243 244 244 245 243 242 243 241 235 243 241 239 232 235 243 249 253 256 257 264 267 267 265 263 261 261 259 257 257 257 259 256 251 249 253 248 245 246
245 244 244 242 246 243 241 244 240 241 254 246 235 237 248 252 258 259 262 264 268 268 267 263 261 263 261 260 257 255 259 261 254 249 252 253 245 247
248 244 246 242 240 243 242 239 236 236 239 253 255 249 249 251 253 256 258 265 269 271 268 266 266 261 261 262 261 257 257 258 257 251 252 253 249 247
253 255 247 246 244 243 242 242 234 238 238 242 244 245 244 250 260 262 269 273 269 268 265 270 268 263 261 272 260 257 256 259 259 258 257 255 256 251
257 258 254 249 244 243 243 237 236 238 238 239 247 249 256 254 258 261 270 271 275 273 273 272 269 266 265 263 259 262 256 259 261 261 259 256 258 258
259 255 253 247 244 245 241 240 237 239 233 237 245 253 251 253 256 258 264 271 281 283 279 276 276 270 266 262 262 259 259 261 268 265 260 256 255 255
265 261 259 256 252 247 242 236 226 232 230 230 241 238 242 227 240 250 249 269 274 275 277 278 274 271 268 263 265 264 266 270 271 267 264 259 256 254
286 279 271 264 261 254 251 249 247 233 231 232 239 235 242 235 239 243 248 255 261 265 258 266 271 272 271 268 272 276 279 275 276 283 280 273 258 255
282 278 275 268 261 259 253 251 253 254 246 236 239 237 239 242 244 246 243 238 251 252 257 261 270 266 279 271 276 279 275 275 285 287 284 275 275 268
279 278 275 265 261 258 258 262 256 239 253 252 252 240 234 236 242 243 249 254 254 247 248 258 268 260 266 271 277 277 280 280 283 284 281 280 279 275
242 256 241 230 245 251 262 230 165 138 105 149 149 150 154 208 236 237 216 209 238 200 139 232 256 297 286 283 279 276 276 279 281 284 288 290 287 284
105 89 71 76 237 252 227 196 148 148 148 131 107 89 79 53 74 96 77 124 98 115 1 341 328 358 329 332 356 352 320 312 302 299 297 293 292 290
82 78 75 71 75 83 136 137 129 147 129 121 108 81 58 49 51 56 41 32 300 278 348 328 315 0 284 309 310 296 307 302 302 302 302 301 303 296
95 92 81 76 79 88 91 94 109 121 115 114 88 74 69 57 52 64 68 22 263 272 293 296 263 337 325 298 254 294 294 300 307 303 305 307 305 302
84 85 83 80 81 75 69 88 103 99 102 90 80 78 65 63 58 42 54 21 349 63 3 325 293 284 277 249 271 279 300 302 299 298 310 301 300 298
87 81 82 78 76 77 81 84 84 78 78 71 70 63 44 30 11 3 7 3 360 349 15 296 294 281 279 275 273 271 273 267 287 297 298 292 287 282
95 85 74 70 69 63 59 60 63 69 65 60 52 42 30 12 359 346 360 351 341 318 321 344 329 292 280 278 277 272 271 274 281 285 285 285 281 276
98 81 69 65 60 50 45 44 47 50 44 39 34 16 359 351 338 338 328 329 307 310 315 326 328 328 300 292 262 256 264 275 293 294 291 288 293 292
90 78 85 80 70 58 50 41 30 26 8 13 6 356 345 337 328 325 326 323 319 322 322 321 323 307 305 310 290 274 269 298 299 304 300 293 292 295
70 68 70 69 64 59 48 40 24 19 13 6 1 348 337 337 332 327 327 318 317 316 307 320 319 297 268 283 288 287 303 291 312 308 308 309 299 298
89 109 110 103 88 50 42 30 22 22 0 2 4 351 339 329 327 325 321 315 317 316 307 302 310 309 306 305 288 298 317 318 320 316 308 305 306 305
96 114 63 53 357 24 35 25 28 21 13 3 358 360 345 331 315 317 319 313 317 310 295 316 328 330 315 297 303 315 321 326 344 337 310 285 289 295
188 255 224 228 280 336 359 8 12 11 10 3 356 341 345 329 328 326 324 316 319 324 320 315 321 325 314 327 331 318 319 337 333 325 325 328 315 308